Weather History for Humberside, United Kingdom

Change the Weather History Date:

Sunday, April 28, 2013

  Actual Average Record
Temperature  
Mean Temperature 44 °F -  
Max Temperature 56 °F 58 °F - ()
Min Temperature 32 °F 44 °F - ()
Degree Days  
Heating Degree Days 21    
Moisture  
Dew Point 37 °F    
Average Humidity 73    
Maximum Humidity 100    
Minimum Humidity 37    
Precipitation  
Precipitation 0.04 in - - ()
Sea Level Pressure  
Sea Level Pressure 29.90 in    
Wind  
Wind Speed 13 mph ()    
Max Wind Speed 24 mph    
Max Gust Speed 33 mph    
Visibility 8.0 miles    
Events      
T = Trace of Precipitation, MM = Missing Value Source: Averaged Metar Reports

Daily Weather History Graph

Daily Weather History Graph

Search for Another Location

Airport:

Trip Planner

Search our weather history database for the weather conditions in past years. The results will help you decide how hot, cold, wet, or windy it might be!

Date:

Astronomy

Apr. 28, 2013 Rise Set
Actual Time 5:34 AM BST 8:26 PM BST
Civil Twilight 4:54 AM BST 9:06 PM BST
Nautical Twilight 4:02 AM BST 9:58 PM BST
Astronomical Twilight 2:56 AM BST 11:05 PM BST
Moon 11:58 PM BST (4/28) 7:19 AM BST (4/28)
Length of Visible Light 16h 11m
Length of Day
14h 52m
Waning Gibbous, 90% of the Moon is Illuminated
Apr 28
Waning Gibbous
May 2
Last Quarter
May 10
New
May 18
First Quarter
May 25
Full

Hourly Weather History & Observations

Time (BST) Temp. Windchill Dew Point Humidity Pressure Visibility Wind Dir Wind Speed Gust Speed Precip Events Conditions
12:50 AM 36 °F - 32 °F 81% 30.10 in 14 mi SSW 6.9 mph - -  
12:50 AM 37.4 °F 32.1 °F 32.0 °F 81% 30.06 in 6.2 mi SSW 6.9 mph - N/A   Unknown
1:50 AM 33.8 °F 25.8 °F 32.0 °F 93% 30.06 in 6.2 mi WSW 10.4 mph - N/A   Unknown
2:50 AM 35.6 °F 28.0 °F 33.8 °F 93% 30.04 in 6.2 mi SW 10.4 mph - N/A   Unknown
3:50 AM 35 °F - 33 °F 87% 30.06 in 12 mi SW 11.5 mph - -  
3:50 AM 35.6 °F 27.5 °F 32.0 °F 87% 30.04 in 6.2 mi SW 11.5 mph - N/A   Unknown
4:50 AM 35.6 °F 27.5 °F 32.0 °F 87% 30.01 in 6.2 mi SSW 11.5 mph - N/A   Mostly Cloudy
5:50 AM 37.4 °F 29.8 °F 33.8 °F 87% 30.01 in 6.2 mi SSW 11.5 mph - N/A   Overcast
6:50 AM 38 °F - 34 °F 79% 30.01 in 13 mi SSW 12.7 mph - -   Overcast
6:50 AM 37.4 °F 29.3 °F 33.8 °F 87% 29.98 in 6.2 mi SSW 12.7 mph - N/A   Overcast
7:50 AM 39.2 °F 31.2 °F 35.6 °F 87% 29.98 in 6.2 mi SW 13.8 mph - N/A   Overcast
8:50 AM 42.8 °F 35.8 °F 35.6 °F 76% 29.95 in 6.2 mi SW 13.8 mph - N/A   Overcast
9:50 AM 47 °F - 36 °F 55% 29.95 in 19 mi SSW 17.3 mph - -   Overcast
9:50 AM 46.4 °F 39.5 °F 35.6 °F 66% 29.92 in 6.2 mi SSW 17.3 mph - N/A   Overcast
10:50 AM 50.0 °F - 35.6 °F 58% 29.92 in 6.2 mi SW 21.9 mph - N/A   Overcast
11:50 AM 53.6 °F - 33.8 °F 47% 29.89 in 6.2 mi SW 21.9 mph 33.4 mph N/A   Mostly Cloudy
12:50 PM 57 °F - 38 °F 37% 29.87 in 25 mi SW 23.0 mph - -   Mostly Cloudy
12:50 PM 57.2 °F - 37.4 °F 48% 29.86 in 6.2 mi SW 23.0 mph - N/A   Mostly Cloudy
1:50 PM 55.4 °F - 35.6 °F 47% 29.83 in 6.2 mi SW 23.0 mph - N/A   Scattered Clouds
2:50 PM 53.6 °F - 35.6 °F 51% 29.83 in 6.2 mi WSW 24.2 mph - N/A   Overcast
3:50 PM 54 °F - 36 °F 38% 29.81 in 37 mi SW 21.9 mph - -   Overcast
3:50 PM 53.6 °F - 35.6 °F 51% 29.80 in 6.2 mi SW 21.9 mph - N/A   Overcast
4:50 PM 53.6 °F - 37.4 °F 54% 29.77 in 6.2 mi SW 23.0 mph - N/A   Overcast
5:50 PM 51.8 °F - 41.0 °F 67% 29.77 in 6.2 mi SW 23.0 mph - N/A   Overcast
6:50 PM 49 °F - 44 °F 75% 29.78 in 19 mi WSW 19.6 mph - -   Mostly Cloudy
6:50 PM 48.2 °F - 42.8 °F 82% 29.77 in 6.2 mi WSW 19.6 mph - N/A   Mostly Cloudy
7:50 PM 46.4 °F 39.5 °F 42.8 °F 87% 29.77 in 4.3 mi West 17.3 mph - N/A   Mostly Cloudy
8:50 PM 44.6 °F 38.8 °F 44.6 °F 100% 29.77 in 6.2 mi WSW 11.5 mph - N/A   Mostly Cloudy
9:50 PM 45 °F - 43 °F 90% 29.79 in 15 mi SW 12.7 mph - -   Scattered Clouds
9:50 PM 44.6 °F 38.4 °F 42.8 °F 93% 29.77 in 6.2 mi SW 12.7 mph - N/A   Mostly Cloudy
10:50 PM 46.4 °F 40.4 °F 42.8 °F 87% 29.77 in 6.2 mi SW 13.8 mph - N/A   Mostly Cloudy
11:50 PM 44.6 °F 38.4 °F 42.8 °F 93% 29.77 in 6.2 mi WSW 12.7 mph - N/A   Mostly Cloudy